Wetbulb
55.27 55.87 55.89 54.87 54.54 55.08 54.50 55.09 53.23 54.58 55.70 63.50 66.45 67.56 68.14 70.74 72.42 74.50 73.34 72.37 73.36 73.65 74.56 75.60 75.76 76.14 76.87 76.32 78.26 77.43 79.32 79.53 79.41 79.59 79.41 79.80 80.69 80.58 80.67 81.43 81.09 81.94 82.13 82.49
54.78 55.39 55.34 53.96 55.32 55.32 55.98 55.80 55.81 55.84 58.77 66.30 68.56 69.02 69.00 69.20 68.67 71.85 72.53 73.25 74.77 74.16 74.00 74.92 75.73 76.43 77.00 77.30 77.62 78.62 79.47 77.73 80.67 81.96 81.66 81.45 81.38 81.88 82.62 82.06 82.48 82.63 81.89 81.72
52.67 55.43 55.14 52.50 55.33 55.84 56.88 58.27 57.37 55.39 62.29 64.93 65.54 66.77 68.11 68.62 69.12 69.35 69.85 71.04 71.23 70.70 71.10 72.70 76.35 78.54 76.67 77.11 77.97 78.40 78.67 79.54 81.19 81.55 81.16 82.07 82.21 82.09 81.65 81.79 81.87 81.53 81.37 81.42
53.11 55.10 49.20 56.06 61.04 59.69 57.85 57.90 60.16 60.41 63.24 64.68 65.52 67.16 68.32 69.44 68.72 68.47 68.78 68.78 68.45 68.81 67.70 67.05 71.14 72.54 74.28 73.31 77.99 78.61 78.21 78.85 80.32 81.28 80.87 81.33 80.94 80.80 81.76 81.96 81.80 81.64 81.24 80.67
50.99 51.55 54.47 55.53 58.49 57.81 56.44 57.01 62.08 61.49 63.15 65.18 65.83 66.73 67.05 69.13 69.68 68.85 68.85 68.55 69.16 69.46 69.45 68.68 68.64 69.86 69.49 70.92 70.80 73.40 67.15 74.24 79.08 80.45 80.15 80.70 80.38 81.08 81.68 81.22 80.75 80.77 80.32 73.77
53.04 50.29 48.50 58.19 61.26 62.35 60.53 53.81 62.77 62.34 62.15 63.40 64.44 60.03 65.18 68.89 69.51 69.11 68.91 69.47 69.47 70.02 70.29 70.27 70.47 69.99 68.49 69.25 69.42 69.44 69.72 69.99 75.07 79.15 80.34 79.31 80.01 81.44 80.86 81.44 79.64 76.49 72.12 72.88
52.22 51.00 54.92 60.78 61.12 61.97 52.77 56.77 63.01 63.33 63.48 63.44 62.16 65.23 68.05 69.18 69.11 70.36 70.47 69.83 69.91 69.55 69.02 69.23 69.10 68.70 69.10 68.62 65.82 68.94 73.02 73.22 74.63 74.28 78.97 79.91 80.06 80.68 79.86 78.27 78.51 77.38 74.09 72.40
53.67 52.06 50.49 61.80 60.24 56.04 62.17 63.65 63.57 64.25 64.51 64.59 65.29 65.60 66.28 67.24 68.45 69.44 69.83 69.83 70.55 70.10 70.04 69.55 69.55 68.33 68.79 68.89 67.43 68.02 71.99 73.74 74.53 75.02 74.51 76.16 77.65 77.85 76.37 76.78 74.70 73.01 71.52 69.91
57.55 58.02 62.31 62.75 62.69 63.54 63.48 62.36 63.84 63.91 64.08 64.64 64.20 64.84 65.93 66.43 67.33 68.22 68.69 69.09 69.52 69.55 70.46 70.41 69.89 70.31 70.17 70.62 70.37 71.35 74.67 73.30 72.71 74.48 74.08 74.86 74.66 73.66 71.41 70.48 69.93 68.88 68.45 68.65
56.93 60.50 60.78 61.72 62.85 63.31 63.56 62.96 63.50 63.98 64.16 64.19 64.20 65.33 65.87 66.84 67.23 67.63 68.44 68.70 69.69 69.80 70.15 69.68 70.51 70.90 71.38 72.17 71.84 75.07 74.17 73.99 73.74 73.77 73.45 74.03 73.95 73.14 71.88 70.58 69.05 68.59 68.32 68.29
58.10 60.65 61.62 61.88 62.46 62.77 63.07 64.01 64.38 65.14 65.12 64.74 65.52 65.43 66.77 67.09 67.41 68.31 68.62 68.84 69.36 69.87 70.36 70.48 71.50 72.35 73.05 73.64 75.41 74.97 74.26 73.74 73.11 73.36 72.92 73.48 73.43 70.19 72.62 67.36 67.68 70.27 70.05 70.43
57.06 62.25 61.89 62.79 63.63 63.50 63.58 64.04 65.19 65.00 64.81 66.09 66.67 66.10 67.00 67.11 67.07 67.67 69.35 70.49 69.97 70.69 70.93 70.94 71.61 72.85 73.27 75.05 75.82 75.47 75.26 74.35 73.43 73.57 73.81 73.01 72.57 70.71 53.20 53.88 51.34 50.85 51.03 61.44
59.79 63.24 63.18 63.62 63.26 64.29 63.94 64.59 65.47 65.92 66.51 66.25 66.18 67.11 67.33 67.54 68.60 67.58 69.96 70.63 70.64 70.45 71.67 71.76 72.23 72.67 69.86 70.29 72.25 73.77 75.42 76.62 72.85 70.11 72.80 72.16 71.99 71.54 70.37 61.57 49.91 49.60 51.79 51.98
62.10 62.28 61.51 62.27 61.90 64.48 65.20 65.44 64.77 66.49 66.31 67.41 67.02 67.56 67.59 67.60 68.87 69.76 69.85 70.87 71.52 71.60 72.56 73.90 72.72 71.67 70.66 71.55 74.56 74.95 74.54 62.84 72.95 72.69 72.36 72.36 72.58 72.52 71.31 70.93 70.00 67.48 50.90 53.25
61.63 62.78 62.71 63.63 64.63 65.25 66.02 66.26 64.89 64.55 65.10 66.16 67.74 67.53 68.15 67.91 69.52 70.59 71.83 71.91 72.69 71.54 72.33 74.89 73.35 73.76 75.20 74.92 75.77 75.29 74.47 72.92 72.63 72.10 72.50 70.43 72.06 71.78 70.77 71.17 70.16 70.66 67.24 56.66
62.50 62.44 63.08 62.98 63.52 65.25 65.51 64.98 64.31 64.84 65.31 66.14 66.54 67.31 68.38 69.36 69.46 70.65 71.36 72.25 71.69 72.19 73.44 74.46 74.57 75.37 75.56 76.30 75.59 74.26 74.13 68.72 67.85 71.78 71.24 71.55 70.67 70.00 70.01 70.56 69.97 69.63 70.06 69.77
60.98 60.38 61.37 62.10 62.81 64.25 64.74 63.90 65.20 64.73 65.43 66.02 65.94 67.45 67.70 68.29 69.26 69.90 70.89 71.26 72.59 73.08 74.81 75.02 74.29 76.25 75.43 75.95 75.10 72.58 72.07 73.04 69.18 70.96 70.58 70.10 69.70 69.04 70.65 71.01 69.64 69.63 69.48 69.38
64.27 63.50 63.78 63.93 63.65 64.22 65.12 65.22 65.04 65.39 65.63 65.55 66.14 66.40 66.30 66.68 66.92 68.14 69.74 71.48 71.75 72.62 72.80 74.09 75.09 75.37 74.54 73.25 73.70 72.42 71.66 71.09 71.29 70.87 70.27 70.09 69.77 70.53 70.16 71.59 70.24 69.66 69.78 65.10
65.13 63.46 64.17 64.15 64.79 66.33 65.72 65.35 64.69 64.85 64.84 65.36 64.88 64.78 65.84 66.38 67.06 67.79 68.68 70.38 70.73 71.10 71.69 73.51 66.11 70.14 74.47 73.39 71.75 72.34 71.53 70.48 69.64 70.34 70.76 66.57 70.05 70.12 70.00 70.82 69.75 69.94 70.37 68.11
64.28 64.97 65.13 65.87 66.68 66.28 65.22 65.10 64.85 64.47 65.05 65.63 64.88 64.85 65.06 65.73 67.00 68.40 69.75 69.68 71.18 70.77 71.07 71.66 71.72 72.74 73.39 73.11 69.71 71.33 69.93 69.59 70.34 69.12 71.65 70.71 69.84 69.88 70.10 61.84 68.23 69.07 69.36 69.80
64.37 65.31 66.11 66.26 65.53 65.70 65.02 65.53 65.34 64.86 65.47 65.46 64.30 64.34 64.93 65.86 66.66 67.25 67.82 67.60 71.24 69.70 68.76 67.55 71.78 72.24 72.46 70.31 71.00 71.29 70.70 70.17 70.46 70.60 70.02 69.96 69.51 69.41 69.12 68.96 68.87 69.18 69.37 68.34
65.21 65.57 65.49 65.61 65.02 64.85 65.73 65.89 65.87 64.88 64.49 64.78 64.73 64.82 65.22 65.01 65.77 65.84 66.92 67.47 68.63 59.26 65.84 69.69 69.62 63.64 67.69 63.87 71.18 70.88 70.76 70.38 70.11 70.06 70.03 69.95 69.44 69.12 69.03 68.95 68.17 67.86 68.78 68.96
66.20 66.05 65.91 65.50 65.04 65.04 65.36 65.45 65.16 64.56 64.24 64.68 64.76 64.34 64.22 63.93 64.22 63.09 62.56 68.41 67.24 62.50 65.92 67.69 61.54 59.85 59.44 68.94 71.17 71.71 71.04 70.82 70.64 70.35 70.16 70.16 69.91 69.51 68.67 68.23 68.25 67.99 68.53 68.07
66.11 65.92 65.70 66.18 66.48 65.25 64.55 65.34 64.56 64.88 65.24 65.46 65.44 65.85 63.99 62.41 62.80 64.16 65.70 62.66 59.00 62.09 65.27 65.24 63.44 58.92 56.59 67.16 68.95 69.98 71.25 71.10 70.64 71.64 70.68 55.69 68.87 68.10 67.49 67.41 66.76 67.25 68.20 66.39
65.28 64.51 63.53 62.47 62.23 62.93 63.85 63.92 63.45 64.04 64.49 65.06 65.24 65.87 66.48 65.18 63.28 63.53 63.84 63.89 59.07 61.71 65.44 59.14 59.95 59.10 66.50 67.09 67.26 68.60 69.78 69.73 69.72 70.16 69.67 68.61 67.83 67.64 67.26 66.83 66.34 66.30 68.24 68.55
64.35 63.21 62.97 63.03 61.14 60.35 60.55 62.14 61.95 62.61 62.32 61.97 62.85 63.59 64.16 64.64 64.65 63.54 64.06 61.99 64.75 61.63 64.17 64.99 66.34 66.62 66.57 65.55 66.05 67.01 67.56 67.98 67.93 68.23 66.38 67.26 67.58 67.00 66.70 66.39 65.83 66.18 67.17 68.29
62.82 56.83 62.23 61.96 62.18 62.01 61.85 61.18 60.71 60.70 60.53 61.02 60.79 62.11 62.89 63.94 63.92 62.39 58.99 63.23 63.35 63.49 63.73 63.80 63.55 62.19 63.96 64.05 64.71 65.86 66.66 67.49 62.90 67.40 67.69 67.70 67.60 67.35 66.73 66.10 66.01 66.90 67.56 68.07
MSLP
998.37 998.81 998.36 997.98 998.27 998.60 998.90 998.59 998.97 999.31 1000.50 1002.92 1004.57 1005.91 1006.62 1006.28 1005.92 1005.38 1004.17 1003.57 1003.73 1003.90 1003.81 1004.83 1005.66 1005.99 1006.37 1006.88 1007.37 1007.59 1008.13 1008.35 1008.56 1008.82 1009.23 1009.74 1010.05 1010.45 1010.93 1011.32 1011.93 1012.45 1012.85 1013.21
999.54 999.28 999.26 998.74 998.88 999.11 999.44 999.85 1000.44 1000.74 1001.66 1003.89 1005.61 1006.83 1007.02 1007.45 1007.67 1007.13 1006.83 1006.88 1005.88 1005.46 1005.28 1005.58 1005.92 1006.43 1006.76 1007.21 1007.56 1008.01 1008.30 1008.61 1008.74 1008.87 1008.96 1009.00 1009.45 1009.96 1010.45 1010.91 1011.38 1011.82 1012.28 1012.76
999.89 999.39 999.49 999.47 999.35 999.24 999.57 1000.37 1001.21 1001.51 1003.08 1004.35 1005.64 1006.70 1007.20 1007.45 1007.91 1008.17 1008.36 1008.22 1008.20 1008.42 1008.52 1008.38 1007.04 1006.21 1006.51 1007.42 1008.17 1008.88 1009.28 1009.61 1009.66 1009.77 1009.78 1009.54 1009.33 1009.46 1009.89 1010.27 1010.66 1010.89 1011.19 1011.78
1000.64 1000.24 999.62 999.72 1000.38 1000.54 1000.65 1001.21 1002.21 1003.07 1004.18 1005.36 1006.22 1007.04 1007.62 1008.05 1008.27 1008.62 1008.88 1008.90 1008.84 1008.79 1009.25 1008.12 1007.94 1007.83 1008.96 1009.55 1009.08 1009.25 1009.48 1009.63 1009.70 1009.63 1009.67 1009.79 1009.88 1009.64 1009.51 1009.81 1010.12 1010.46 1010.88 1011.27
1001.35 1000.83 1000.34 1000.27 1000.89 1001.28 1001.41 1001.99 1002.88 1003.76 1004.89 1005.84 1006.68 1007.18 1007.51 1008.02 1008.35 1008.85 1009.08 1009.24 1009.26 1009.14 1009.30 1009.47 1008.90 1009.02 1008.52 1011.12 1010.36 1010.92 1011.79 1010.80 1009.96 1009.92 1009.63 1009.48 1009.39 1009.36 1009.13 1009.19 1009.45 1009.87 1010.25 1011.34
1001.86 1001.32 1001.07 1001.95 1002.69 1002.82 1002.76 1003.06 1004.42 1004.99 1005.39 1005.93 1006.35 1006.20 1007.11 1007.96 1008.30 1008.67 1008.93 1009.29 1009.02 1008.94 1009.02 1008.55 1009.23 1008.99 1008.62 1010.71 1010.87 1010.67 1011.50 1010.89 1010.11 1008.98 1009.65 1009.33 1009.06 1009.00 1008.84 1008.83 1008.86 1009.13 1010.24 1011.39
1002.21 1002.17 1002.10 1003.30 1003.73 1003.78 1003.87 1004.91 1005.53 1005.90 1006.27 1006.55 1006.59 1007.03 1007.64 1008.07 1008.12 1008.38 1008.53 1008.72 1009.02 1008.81 1008.75 1009.15 1009.32 1009.21 1009.18 1009.46 1009.04 1010.15 1012.37 1014.28 1011.16 1008.13 1008.81 1008.74 1009.09 1008.83 1008.90 1008.90 1009.04 1009.89 1010.69 1011.64
1002.50 1002.55 1003.24 1004.32 1004.45 1004.23 1005.54 1006.10 1006.37 1006.66 1006.96 1007.36 1007.45 1007.60 1007.68 1007.78 1008.02 1008.23 1008.23 1008.24 1008.44 1008.35 1008.32 1008.89 1009.41 1009.26 1009.27 1009.64 1010.19 1010.39 1012.08 1012.32 1012.12 1011.48 1010.98 1009.41 1010.37 1009.35 1009.44 1009.61 1010.15 1010.94 1011.58 1012.27
1003.18 1004.14 1005.36 1005.56 1005.44 1005.89 1006.21 1006.38 1006.62 1006.93 1006.80 1007.20 1007.11 1007.17 1007.38 1007.51 1007.60 1007.75 1007.77 1007.76 1007.83 1007.87 1008.16 1008.82 1009.37 1009.49 1009.36 1009.99 1010.32 1010.75 1010.96 1010.59 1011.18 1011.49 1010.33 1011.20 1011.20 1010.05 1010.11 1010.46 1011.03 1011.68 1012.02 1012.45
1004.67 1004.54 1005.48 1005.86 1006.11 1006.29 1006.44 1006.67 1006.79 1006.78 1006.82 1007.01 1007.10 1006.96 1006.92 1006.94 1006.91 1006.89 1007.05 1007.29 1007.52 1007.92 1008.18 1008.83 1009.31 1009.52 1009.76 1009.76 1010.21 1010.55 1011.06 1010.99 1012.00 1011.80 1011.32 1011.13 1010.37 1009.74 1010.35 1010.94 1011.61 1012.09 1012.39 1012.80
1005.07 1005.24 1006.09 1006.40 1006.52 1006.51 1006.69 1007.00 1007.05 1006.93 1006.92 1006.92 1006.80 1007.20 1007.22 1007.20 1007.24 1007.18 1007.22 1007.32 1007.49 1007.77 1008.18 1008.54 1008.85 1009.13 1009.27 1009.45 1009.73 1010.15 1010.47 1010.88 1011.02 1011.08 1010.94 1010.65 1010.07 1010.37 1010.34 1011.28 1011.60 1012.19 1012.43 1012.50
1004.53 1005.29 1005.50 1006.37 1006.93 1007.04 1006.95 1007.02 1007.17 1007.08 1007.14 1007.27 1007.22 1007.39 1007.28 1007.13 1007.55 1007.56 1007.69 1007.62 1007.60 1007.76 1008.11 1008.58 1008.94 1008.89 1008.62 1008.88 1009.38 1009.54 1009.94 1009.58 1009.23 1009.78 1009.29 1009.21 1009.58 1010.62 1011.33 1011.67 1012.08 1012.32 1012.54 1012.46
1005.49 1006.05 1006.42 1006.27 1006.77 1006.91 1006.98 1007.11 1007.11 1007.18 1007.28 1007.23 1007.32 1007.35 1007.36 1007.33 1007.33 1007.83 1007.65 1007.42 1007.60 1007.72 1007.85 1008.37 1008.79 1008.83 1008.83 1009.20 1009.40 1009.18 1009.41 1009.22 1008.75 1008.94 1008.54 1008.75 1009.04 1009.34 1010.39 1012.05 1011.92 1012.27 1012.62 1013.07
1006.19 1006.11 1006.50 1006.56 1006.53 1006.74 1006.92 1007.00 1007.59 1007.10 1007.20 1007.38 1007.61 1007.91 1007.90 1007.92 1007.80 1007.85 1007.67 1007.65 1007.47 1007.47 1007.45 1007.77 1008.20 1008.41 1008.74 1008.96 1008.81 1008.80 1009.06 1009.13 1008.74 1008.06 1008.03 1008.14 1008.27 1008.47 1008.78 1008.93 1010.20 1011.61 1012.78 1013.26
1006.44 1006.28 1006.17 1006.31 1006.53 1006.62 1006.88 1007.04 1007.27 1007.32 1007.45 1007.60 1007.81 1008.15 1008.34 1008.34 1008.22 1008.14 1007.91 1007.72 1007.15 1007.38 1007.15 1007.61 1008.14 1008.08 1008.38 1008.64 1008.59 1008.74 1008.84 1008.23 1008.51 1008.01 1007.89 1008.31 1008.22 1008.44 1008.42 1008.54 1008.90 1009.25 1011.22 1012.58
1006.09 1006.29 1006.03 1006.28 1006.80 1006.73 1006.83 1007.04 1007.52 1007.75 1007.90 1008.09 1008.37 1008.57 1008.66 1008.51 1008.39 1008.28 1008.03 1007.76 1007.66 1007.46 1007.43 1007.03 1007.45 1007.43 1007.92 1008.20 1008.44 1008.43 1008.44 1008.61 1008.67 1008.39 1008.00 1008.36 1008.14 1008.15 1007.96 1008.29 1008.58 1008.61 1008.88 1009.79
1005.74 1005.88 1006.13 1006.27 1006.59 1006.68 1006.97 1007.78 1007.70 1008.00 1008.38 1008.68 1008.91 1008.98 1008.89 1008.76 1008.52 1008.52 1008.35 1007.95 1007.80 1007.87 1007.67 1007.55 1007.13 1007.13 1007.68 1008.32 1008.37 1007.67 1007.38 1007.43 1008.34 1008.27 1007.90 1007.34 1007.37 1007.79 1007.63 1008.04 1008.28 1008.23 1008.08 1008.89
1005.74 1005.60 1005.79 1006.01 1006.42 1006.73 1007.37 1007.78 1008.21 1008.52 1008.87 1009.30 1009.47 1009.41 1009.31 1009.15 1009.08 1008.92 1008.65 1008.31 1008.01 1007.69 1007.89 1007.92 1008.10 1008.19 1008.24 1008.26 1008.33 1007.68 1007.38 1007.31 1007.18 1007.23 1007.08 1007.15 1007.39 1007.65 1007.90 1007.98 1008.34 1008.07 1008.23 1010.15
1005.28 1005.30 1005.32 1005.60 1006.29 1006.90 1007.56 1008.23 1008.60 1009.09 1009.44 1009.57 1009.66 1009.69 1009.70 1009.54 1009.37 1009.23 1008.98 1008.62 1008.16 1007.95 1008.22 1008.30 1009.07 1008.72 1008.18 1008.12 1008.32 1007.73 1007.22 1006.80 1006.66 1006.80 1006.65 1007.61 1007.83 1007.89 1007.85 1007.71 1008.04 1007.90 1008.21 1009.68
1004.75 1004.79 1005.05 1005.78 1006.44 1007.13 1007.93 1008.48 1008.95 1009.32 1009.61 1009.78 1009.95 1009.95 1009.94 1009.78 1009.64 1009.42 1009.22 1008.75 1008.57 1008.58 1008.95 1008.37 1008.56 1008.13 1007.60 1008.18 1008.52 1007.68 1006.90 1006.41 1006.19 1006.50 1006.68 1007.40 1007.40 1007.36 1007.35 1007.98 1008.33 1008.26 1008.47 1008.51
1004.79 1004.94 1005.23 1006.04 1006.92 1007.73 1008.23 1008.68 1009.03 1009.36 1009.70 1009.95 1010.13 1010.22 1010.22 1010.06 1009.81 1009.59 1008.97 1008.26 1008.73 1009.08 1008.84 1008.76 1008.17 1007.90 1007.68 1008.03 1007.90 1006.86 1006.10 1005.97 1006.33 1006.47 1006.58 1007.05 1007.21 1007.44 1007.63 1007.62 1007.67 1007.64 1008.20 1008.78
1004.79 1005.17 1005.99 1006.75 1007.45 1007.99 1008.41 1008.77 1009.20 1009.62 1009.78 1009.96 1010.14 1010.17 1010.09 1009.87 1009.56 1009.40 1009.06 1008.80 1008.39 1009.10 1008.86 1007.66 1008.43 1009.45 1009.28 1009.08 1007.73 1006.61 1006.30 1006.34 1006.53 1006.66 1006.69 1007.13 1007.13 1007.08 1007.16 1007.22 1007.29 1007.38 1007.76 1008.83
1004.95 1005.83 1006.57 1007.27 1007.76 1008.39 1008.82 1008.82 1009.12 1009.43 1009.65 1009.88 1010.01 1010.00 1009.82 1009.36 1009.01 1008.57 1008.32 1008.83 1008.54 1009.24 1008.97 1008.27 1009.34 1009.60 1009.52 1008.88 1007.68 1006.94 1006.85 1006.76 1006.80 1006.88 1007.07 1007.30 1007.27 1007.31 1007.22 1007.16 1007.16 1007.24 1007.46 1008.62
1005.81 1006.67 1007.25 1007.62 1007.89 1008.34 1008.55 1008.73 1008.63 1009.14 1009.66 1009.88 1009.83 1009.84 1009.73 1008.98 1008.50 1008.16 1007.89 1008.46 1009.12 1009.42 1008.95 1008.92 1009.05 1009.28 1009.25 1008.31 1007.35 1007.47 1007.58 1007.74 1007.43 1007.26 1007.47 1008.45 1007.80 1007.74 1007.66 1007.49 1007.37 1007.16 1007.25 1008.45
1007.38 1007.94 1008.28 1008.47 1008.59 1008.58 1008.88 1008.83 1008.93 1009.07 1009.20 1009.35 1009.38 1009.36 1009.35 1009.00 1008.67 1008.40 1008.44 1008.57 1008.77 1008.93 1008.41 1009.15 1008.88 1008.93 1008.46 1007.48 1006.97 1006.81 1007.36 1007.71 1007.92 1007.77 1007.45 1007.48 1007.44 1007.32 1007.42 1007.48 1007.41 1007.28 1007.46 1008.13
1007.58 1007.69 1007.83 1008.34 1008.58 1008.72 1008.84 1008.69 1008.44 1008.09 1008.12 1008.21 1008.34 1008.36 1008.26 1008.09 1007.97 1008.13 1007.95 1008.04 1008.09 1008.24 1008.08 1007.74 1007.48 1007.58 1007.26 1006.94 1006.76 1006.47 1006.58 1006.50 1006.85 1007.00 1007.57 1007.60 1007.48 1007.55 1007.57 1007.61 1007.68 1007.34 1007.37 1007.98
1007.46 1007.64 1007.54 1007.84 1007.94 1007.96 1007.92 1007.88 1008.13 1007.99 1008.08 1008.08 1008.08 1008.11 1008.04 1007.85 1007.74 1007.86 1007.84 1007.63 1007.36 1007.16 1006.95 1006.81 1006.75 1006.65 1006.53 1006.40 1006.31 1006.35 1006.22 1006.06 1006.28 1006.51 1006.48 1006.53 1006.80 1006.95 1007.33 1007.59 1007.62 1007.23 1007.69 1008.02
Wind_Speed
9 5 10 3 2 4 10 12 9 15 11 15 15 13 9 9 6 13 11 5 6 6 6 5 6 7 8 11 11 13 12 12 14 14 14 14 12 12 12 11 12 12 11 11
12 4 9 8 10 5 9 7 5 10 9 14 13 8 7 8 9 9 12 14 15 9 3 8 7 8 8 9 10 10 10 13 10 10 11 11 12 11 10 11 10 11 11 10
12 13 7 10 14 13 11 6 6 7 13 8 9 8 5 6 8 6 8 10 10 14 15 14 16 14 3 3 6 7 8 9 8 8 10 10 10 11 12 12 12 14 14 13
13 14 11 5 9 8 7 6 2 1 7 7 8 7 6 4 4 6 7 8 9 9 7 8 11 19 21 23 19 14 8 9 9 9 10 10 10 10 10 10 12 11 11 11
13 12 14 7 11 5 3 4 9 2 5 8 5 6 8 7 5 5 5 7 3 4 6 4 5 6 19 14 14 18 19 16 7 10 10 10 10 10 10 10 11 11 8 11
10 9 13 12 9 6 2 8 8 1 3 3 3 8 10 8 6 7 5 4 5 8 9 9 8 6 17 8 11 16 18 20 19 8 7 9 9 8 8 7 6 7 13 14
10 10 3 8 4 2 8 5 6 3 2 2 5 7 5 2 4 6 7 5 5 7 9 8 11 12 11 6 13 15 8 9 16 19 8 2 4 5 5 6 6 8 10 10
7 9 9 5 3 4 7 5 3 2 4 1 2 3 5 6 7 8 10 9 11 10 9 7 8 9 7 7 6 11 2 4 2 8 8 6 5 6 6 5 6 6 8 7
9 7 6 3 6 4 5 4 0 3 3 3 5 3 4 6 6 7 9 9 10 11 10 7 6 7 10 6 5 3 1 4 5 7 3 2 3 6 6 5 4 3 4 5
3 9 5 2 0 2 2 3 5 6 7 3 5 4 4 5 6 6 6 6 6 7 7 5 6 5 7 10 7 6 2 4 6 8 3 4 4 6 6 5 4 4 4 3
10 6 5 6 3 3 1 2 4 5 5 7 3 2 4 6 7 8 6 6 6 6 5 6 6 7 6 5 4 1 2 3 5 5 4 3 7 6 3 8 3 4 6 5
2 8 7 6 3 2 2 2 1 2 6 3 4 3 3 4 2 6 8 7 6 6 5 3 3 4 3 4 4 5 7 6 5 4 6 5 6 6 12 11 8 8 7 5
9 6 6 2 3 7 4 4 5 7 4 3 2 6 7 7 5 5 8 5 4 6 3 3 8 8 4 4 4 3 5 3 2 5 2 3 3 5 9 3 7 8 8 8
6 7 7 9 8 6 5 5 4 3 4 1 5 6 7 8 8 8 6 7 6 4 4 5 10 10 6 5 6 4 4 3 6 6 3 3 2 2 5 6 9 9 6 4
8 10 13 11 4 7 8 8 7 4 2 2 3 5 7 6 7 7 5 6 6 5 5 7 8 10 11 12 8 6 5 7 7 8 1 2 5 4 4 2 3 7 8 5
10 12 12 9 10 7 9 8 5 2 4 4 5 5 6 6 4 5 7 7 7 8 6 4 11 10 7 7 6 6 8 6 1 6 5 5 5 5 5 2 4 5 5 6
7 15 15 12 10 10 5 7 4 4 2 3 4 5 5 6 6 7 7 8 6 4 4 4 5 5 3 6 8 7 5 7 4 5 8 8 5 4 3 2 6 6 5 10
12 12 16 13 11 9 8 6 5 3 4 3 4 5 6 6 6 6 7 7 5 2 4 3 5 4 5 6 6 7 5 6 5 6 6 5 6 2 4 1 6 7 2 7
14 15 17 14 12 9 9 7 6 5 4 2 3 5 6 6 7 6 7 7 5 5 3 5 3 5 6 3 4 7 9 9 8 4 6 1 4 5 7 3 6 7 3 8
15 13 13 14 13 11 10 8 7 5 3 2 4 4 6 6 7 8 8 7 4 7 7 6 7 8 6 4 4 8 10 10 6 1 4 3 8 6 5 3 6 7 6 2
14 13 13 13 12 11 11 8 6 5 3 1 3 4 5 7 7 7 9 4 1 4 7 8 6 8 6 6 4 9 10 5 1 3 4 6 6 4 7 6 6 4 2 4
14 13 14 14 13 11 9 8 6 4 3 1 3 4 5 7 6 7 6 6 4 5 7 6 9 9 8 13 8 10 4 5 4 5 4 4 6 5 5 6 5 5 3 2
13 14 14 13 11 10 8 7 7 4 3 2 2 4 5 7 6 6 6 6 5 8 7 5 5 4 7 8 8 6 7 5 5 5 4 5 5 6 6 6 5 6 3 6
12 11 11 9 7 7 6 6 3 3 3 4 5 4 6 7 5 6 3 3 6 2 7 8 1 3 6 8 8 4 3 7 8 5 4 2 6 6 7 7 7 7 4 7
10 9 7 4 5 3 2 4 4 6 8 7 6 7 9 8 6 6 6 7 4 6 10 6 9 9 7 9 7 4 6 5 4 7 6 6 7 6 6 6 7 7 4 7
13 10 10 9 6 6 5 6 8 6 5 6 6 6 7 7 7 6 8 8 7 7 9 9 8 8 9 9 9 8 7 7 6 6 7 8 7 7 7 7 9 9 7 7
6 1 3 5 6 7 7 6 6 7 7 8 8 8 9 9 8 8 9 10 10 10 10 8 9 8 8 9 9 9 9 7 5 7 8 7 6 6 6 6 8 6 4 6
Wind_Direction
323 323 303 318 236 199 272 326 328 347 8 68 53 48 30 13 37 14 28 66 133 220 132 130 177 215 208 206 212 207 209 210 200 205 204 209 220 210 211 210 204 211 216 215
290 197 284 284 254 268 301 285 280 274 87 80 99 89 64 59 27 29 44 29 40 44 99 163 179 192 209 213 230 230 211 227 223 213 211 209 203 217 206 208 218 203 218 215
256 272 229 247 251 256 231 344 317 317 67 96 97 90 71 71 64 63 54 60 62 61 47 16 39 45 110 187 228 243 263 266 263 245 235 226 215 202 205 208 205 209 210 207
278 294 239 248 54 350 340 324 44 331 79 66 87 104 101 80 85 96 77 81 64 73 78 44 47 60 48 32 24 16 323 272 267 253 239 233 232 225 212 211 213 215 210 205
267 251 261 251 186 249 272 27 82 128 164 111 136 167 163 139 122 125 118 107 103 85 100 125 97 65 82 37 43 37 1 329 307 279 254 240 228 223 215 210 205 206 205 142
245 269 270 77 53 40 88 240 106 332 119 93 216 262 86 153 156 157 169 163 328 329 314 313 333 339 93 102 51 52 31 335 321 272 265 255 241 229 219 224 209 135 150 168
228 254 135 76 90 123 235 66 76 97 36 202 281 20 9 357 225 246 270 289 311 304 325 344 340 339 345 93 122 90 91 230 314 329 337 262 215 207 161 158 165 175 156 171
236 252 223 100 171 289 76 124 82 107 138 111 339 313 307 281 242 258 270 261 252 270 285 338 360 352 28 57 69 78 31 295 80 290 313 16 283 81 89 128 131 144 158 171
338 45 85 47 54 73 37 341 245 252 223 235 259 221 259 267 253 271 287 289 299 293 292 277 288 347 353 33 16 303 316 29 6 298 10 207 180 97 89 85 107 124 146 166
331 151 143 73 9 235 283 260 276 262 266 241 287 301 270 299 315 310 301 305 296 288 273 264 273 287 292 302 314 287 330 102 237 242 231 181 137 107 113 125 141 156 161 192
261 195 150 220 287 329 328 338 290 277 239 243 228 4 9 5 357 349 345 327 317 290 271 260 282 314 322 314 293 234 134 210 243 221 198 171 70 36 84 66 68 184 197 194
7 14 169 112 149 260 172 178 134 262 189 181 256 283 270 264 245 311 333 319 324 312 293 232 209 238 261 230 220 183 223 239 178 205 198 125 128 113 48 61 65 53 42 38
252 138 240 128 165 206 206 205 171 184 185 212 238 349 321 329 319 330 271 312 321 318 289 198 186 204 221 237 206 230 282 251 177 270 168 166 162 171 150 118 79 72 56 42
262 250 194 218 208 186 207 195 182 207 146 67 17 339 350 339 340 335 322 313 295 282 286 193 190 201 232 269 295 288 266 275 291 264 205 184 243 217 296 179 172 157 82 85
225 214 210 195 139 201 186 192 185 197 41 2 13 10 8 350 2 359 340 330 306 255 224 170 202 208 221 233 232 242 249 265 191 270 86 323 315 278 264 274 298 117 139 173
207 208 233 152 188 200 209 188 126 81 18 4 349 5 346 336 349 6 355 15 351 9 327 210 207 198 203 228 228 225 217 217 332 299 241 217 246 260 258 191 290 269 230 125
217 199 203 202 199 199 163 30 159 67 135 30 20 347 348 351 337 3 347 354 0 347 325 255 255 89 205 200 236 255 269 153 211 253 260 256 216 232 264 167 285 267 284 127
225 221 201 199 187 192 147 139 142 153 80 38 10 345 349 348 346 339 333 334 334 337 28 27 351 326 217 233 249 282 279 279 234 242 273 284 282 249 273 183 283 284 89 117
205 214 198 188 178 144 144 174 139 111 121 82 16 357 346 344 346 335 324 315 283 254 80 320 150 251 253 256 274 258 266 272 265 216 207 65 281 250 265 268 257 257 242 143
189 185 186 155 151 149 160 144 143 141 121 3 335 335 327 331 333 334 325 291 8 19 338 312 318 286 268 157 214 272 268 263 253 257 134 225 236 203 221 215 291 310 295 228
181 176 157 142 153 154 154 152 160 158 164 263 308 308 306 305 303 310 287 297 69 35 317 270 276 343 27 351 291 256 256 277 307 313 206 201 233 251 275 274 279 256 271 280
178 162 156 157 157 159 152 157 142 159 202 218 281 305 304 280 263 261 260 296 5 6 325 317 43 29 342 326 285 289 287 289 277 267 238 256 275 264 265 267 275 280 199 181
157 159 155 158 157 152 168 182 172 177 188 201 271 291 299 315 312 291 293 130 301 59 325 358 69 10 321 288 268 281 294 276 274 286 277 272 281 290 287 284 297 298 176 144
137 147 154 161 145 158 189 169 278 116 192 225 245 261 290 291 305 298 14 147 102 349 309 299 304 243 291 296 293 69 13 321 317 286 278 331 292 287 285 286 281 269 216 137
132 131 141 131 150 174 247 253 231 228 211 229 251 242 240 247 264 293 311 313 302 262 290 142 204 224 264 270 284 270 186 209 255 268 278 267 267 271 275 279 281 274 196 179
172 184 173 181 185 205 211 238 253 264 282 281 281 277 272 278 273 264 255 243 258 267 273 274 248 223 260 300 297 301 299 278 229 229 237 268 273 271 274 284 283 259 233 183
173 244 192 208 219 232 240 260 285 284 283 282 282 279 285 282 275 275 275 272 264 264 268 277 282 275 278 286 297 298 295 273 245 276 282 258 252 259 279 281 269 258 249 214